Date String (YYYY-MM-DD hh:mm:ss) UTC,Instrument flags,Ambient pressure (hPa),Sample flow (lpm),Bypass flow (lpm),Sample temperature (°C),Ambient temperature (°C),ASC tube jacket temperature (°C),LED temperature (°C),Box temperature (°C),Sample RH (%),Span deviation,Mass concentration (μg/m³),Mass concentration (μg/m³),Mass concentration (μg/m³)
DateTimeUTC,F1_M11,P_M11,Q1_M11,Q2_M11,T1_M11,T2_M11,T3_M11,T4_M11,T5_M11,U1_M11,ZSPAN_M11,X0_M11,X2_M11,X1_M11
2021-11-14 01:00:00,,0825.9,4.99,0.00,27.7,26.7,00.0,36.8,29.4,11.5,0000.0,0001.87,0000.85,0000.54
2021-11-14 01:01:00,,0825.8,5.00,0.00,27.7,26.7,00.0,36.8,29.4,11.4,0000.0,0001.97,0000.88,0000.54
2021-11-14 01:02:00,,0826.0,5.00,0.00,27.7,26.8,00.0,36.8,29.5,11.3,0000.0,0001.96,0000.90,0000.53
2021-11-14 01:03:00,,0826.1,4.99,0.00,27.7,26.8,00.0,36.8,29.5,11.3,0000.0,0002.05,0000.93,0000.54
2021-11-14 01:04:00,,0826.1,5.00,0.00,27.7,26.9,00.0,36.8,29.5,11.3,0000.0,0002.34,0000.97,0000.54
2021-11-14 01:05:00,,0825.9,5.00,0.00,27.7,26.9,00.0,36.8,29.5,11.1,0000.0,0002.51,0001.04,0000.54
2021-11-14 01:06:00,,0825.9,5.00,0.00,27.7,27.0,00.0,36.8,29.5,11.2,0000.0,0002.49,0001.04,0000.53
2021-11-14 01:07:00,,0826.1,5.00,0.00,27.7,26.9,00.0,36.8,29.5,11.2,0000.0,0002.32,0001.00,0000.53
2021-11-14 01:08:00,,0825.9,5.01,0.00,27.7,26.9,00.0,36.8,29.5,11.1,0000.0,0002.29,0001.00,0000.53
2021-11-14 01:09:00,,0825.9,5.00,0.00,27.7,26.9,00.0,36.8,29.4,11.1,0000.0,0002.20,0001.00,0000.53
2021-11-14 01:10:00,,0826.0,4.99,0.00,27.7,26.9,00.0,36.8,29.5,11.2,0000.0,0002.16,0000.99,0000.53
2021-11-14 01:11:00,,0826.2,5.00,0.00,27.7,27.0,00.0,36.8,29.5,11.1,0000.0,0002.11,0000.98,0000.53
2021-11-14 01:12:00,,0826.2,5.00,0.00,27.7,27.0,00.0,36.8,29.6,11.1,0000.0,0002.03,0000.96,0000.53
2021-11-14 01:13:00,,0826.4,5.00,0.00,27.8,27.0,00.0,36.8,29.6,11.0,0000.0,0001.94,0000.93,0000.53
2021-11-14 01:14:00,,0826.5,5.00,0.00,27.8,27.1,00.0,36.8,29.6,10.9,0000.0,0001.83,0000.90,0000.53
2021-11-14 01:15:00,,0826.5,5.00,0.00,27.8,27.1,00.0,36.8,29.6,10.8,0000.0,0001.58,0000.88,0000.53
2021-11-14 01:16:00,,0826.5,5.01,0.00,27.8,27.1,00.0,36.8,29.6,10.7,0000.0,0001.43,0000.82,0000.52
2021-11-14 01:17:00,,0826.5,5.01,0.00,27.8,27.2,00.0,36.8,29.6,10.7,0000.0,0001.46,0000.83,0000.53
2021-11-14 01:18:00,,0826.6,5.01,0.00,27.8,27.2,00.0,36.8,29.6,10.6,0000.0,0001.54,0000.86,0000.53
2021-11-14 01:19:00,,0826.6,5.00,0.00,27.9,27.2,00.0,36.8,29.7,10.6,0000.0,0001.52,0000.86,0000.54
2021-11-14 01:20:00,,0826.7,5.00,0.00,27.9,27.2,00.0,36.8,29.7,10.5,0000.0,0001.51,0000.85,0000.55
2021-11-14 01:21:00,,0826.6,5.00,0.00,27.9,27.2,00.0,36.8,29.7,10.5,0000.0,0001.49,0000.84,0000.54
2021-11-14 01:22:00,,0826.5,5.00,0.00,27.9,27.2,00.0,36.8,29.7,10.5,0000.0,0001.52,0000.86,0000.53
2021-11-14 01:23:00,,0826.6,4.98,0.00,27.9,27.2,00.0,36.9,29.8,10.5,0000.0,0001.68,0000.91,0000.54
2021-11-14 01:24:00,,0826.7,5.00,0.00,27.9,27.3,00.0,36.9,29.8,10.4,0000.0,0001.73,0000.91,0000.53
2021-11-14 01:25:00,,0826.7,5.00,0.00,27.9,27.3,00.0,36.9,29.8,10.4,0000.0,0001.72,0000.89,0000.53
2021-11-14 01:26:00,,0826.8,5.00,0.00,28.0,27.3,00.0,36.9,29.8,10.4,0000.0,0001.78,0000.90,0000.54
2021-11-14 01:27:00,,0826.8,4.99,0.00,28.0,27.3,00.0,36.9,29.8,10.4,0000.0,0001.73,0000.88,0000.54
2021-11-14 01:28:00,,0826.8,4.99,0.00,28.0,27.3,00.0,36.9,29.8,10.4,0000.0,0001.66,0000.86,0000.53
2021-11-14 01:29:00,,0826.8,5.01,0.00,28.0,27.3,00.0,36.9,29.8,10.4,0000.0,0002.11,0000.90,0000.53
2021-11-14 01:30:00,,0826.8,5.01,0.00,28.0,27.3,00.0,36.9,29.8,10.5,0000.0,0002.59,0000.93,0000.52
2021-11-14 01:31:00,,0827.1,4.99,0.00,28.0,27.3,00.0,36.9,29.9,10.7,0000.0,0002.58,0000.92,0000.52
2021-11-14 01:32:00,,0826.9,5.00,0.00,28.0,27.4,00.0,37.0,29.9,10.7,0000.0,0002.58,0000.93,0000.52
2021-11-14 01:33:00,,0826.9,5.00,0.00,28.0,27.4,00.0,37.0,29.9,10.6,0000.0,0002.57,0000.91,0000.52
2021-11-14 01:34:00,,0827.0,5.00,0.00,28.1,27.4,00.0,37.0,29.9,10.6,0000.0,0002.43,0000.86,0000.51
2021-11-14 01:35:00,,0827.0,4.99,0.00,28.1,27.4,00.0,37.0,29.9,10.6,0000.0,0002.49,0000.88,0000.51
2021-11-14 01:36:00,,0827.0,4.99,0.00,28.1,27.4,00.0,37.0,29.9,10.6,0000.0,0002.51,0000.90,0000.51
2021-11-14 01:37:00,,0827.0,5.00,0.00,28.1,27.4,00.0,37.0,29.9,10.7,0000.0,0002.40,0000.89,0000.51
2021-11-14 01:38:00,,0827.1,5.00,0.00,28.1,27.4,00.0,37.0,29.9,10.6,0000.0,0002.41,0000.89,0000.52
2021-11-14 01:39:00,,0827.1,5.00,0.00,28.1,27.4,00.0,37.0,29.9,10.6,0000.0,0002.39,0000.88,0000.52
2021-11-14 01:40:00,,0827.2,5.00,0.00,28.1,27.4,00.0,37.0,29.9,10.6,0000.0,0001.92,0000.81,0000.51
2021-11-14 01:41:00,,0827.3,5.01,0.00,28.1,27.4,00.0,37.1,29.9,10.5,0000.0,0001.57,0000.80,0000.51
2021-11-14 01:42:00,,0827.4,5.01,0.00,28.1,27.4,00.0,37.1,29.9,10.4,0000.0,0001.70,0000.83,0000.51
2021-11-14 01:43:00,,0827.4,5.00,0.00,28.1,27.4,00.0,37.1,29.9,10.5,0000.0,0001.73,0000.83,0000.52
2021-11-14 01:44:00,,0827.2,5.00,0.00,28.1,27.4,00.0,37.1,29.9,10.4,0000.0,0001.78,0000.85,0000.53
2021-11-14 01:45:00,,0827.4,5.01,0.00,28.1,27.4,00.0,37.1,29.9,10.3,0000.0,0002.31,0000.88,0000.54
2021-11-14 01:46:00,,0827.4,5.01,0.00,28.2,27.4,00.0,37.1,29.9,10.4,0000.0,0002.27,0000.88,0000.54
2021-11-14 01:47:00,,0827.4,5.00,0.00,28.2,27.4,00.0,37.1,29.9,10.4,0000.0,0002.25,0000.87,0000.54
2021-11-14 01:48:00,,0827.4,5.01,0.00,28.2,27.4,00.0,37.1,30.0,10.1,0000.0,0002.28,0000.85,0000.54
2021-11-14 01:49:00,,0827.4,4.98,0.00,28.2,27.4,00.0,37.1,30.0,10.1,0000.0,0002.29,0000.85,0000.53
2021-11-14 01:50:00,,0827.4,5.01,0.00,28.1,27.4,00.0,37.1,29.9,10.1,0000.0,0002.30,0000.85,0000.53
2021-11-14 01:51:00,,0827.4,5.00,0.00,28.1,27.4,00.0,37.1,29.9,10.1,0000.0,0002.42,0000.87,0000.55
2021-11-14 01:52:00,,0827.4,5.00,0.00,28.2,27.4,00.0,37.1,29.9,10.1,0000.0,0003.03,0000.85,0000.55
2021-11-14 01:53:00,,0827.4,5.00,0.00,28.2,27.4,00.0,37.1,30.0,10.1,0000.0,0002.97,0000.84,0000.55
2021-11-14 01:54:00,,0827.5,5.00,0.00,28.2,27.4,00.0,37.1,30.0,10.1,0000.0,0003.04,0000.84,0000.55
2021-11-14 01:55:00,,0827.5,5.01,0.00,28.2,27.4,00.0,37.1,30.0,10.1,0000.0,0003.03,0000.81,0000.53
2021-11-14 01:56:00,,0827.5,5.00,0.00,28.2,27.4,00.0,37.1,30.0,10.1,0000.0,0003.20,0000.80,0000.52
2021-11-14 01:57:00,,0827.5,5.00,0.00,28.2,27.4,00.0,37.2,30.0,10.3,0000.0,0003.18,0000.80,0000.53
2021-11-14 01:58:00,,0827.6,4.99,0.00,28.2,27.4,00.0,37.2,30.0,10.4,0000.0,0003.27,0000.80,0000.54
2021-11-14 01:59:00,,0827.5,4.99,0.00,28.2,27.4,00.0,37.2,29.9,10.5,0000.0,0003.23,0000.81,0000.54
